Location: Grust
(42.8833°N, 0.0333°W)
Time: 19:50:07
(UTC+00:00)

SL-4 R/B - Pass Details

Date: 25 October 2020
Orbit: 427 x 665 km, 51.6° (Epoch: 22 November)

Event Time Altitude Azimuth Distance (km) Brightness Sun altitude
Rises 17:53:27 0° 285° (WNW) 2,422 6.7 -10.1°
Reaches altitude 10° 17:55:53 10° 302° (WNW) 1,579 5.2 -10.6°
Maximum altitude 17:58:40 21° 354° (N) 1,087 3.5 -11.1°
Enters shadow 18:01:21 11° 44° (NE) 1,588 3.9 -11.6°
